Regional Weather Roundup
Issued by NWS

Home | Current Version | Previous Version | Text Only | Print | Product List | Glossary On
Versions: 1 2 3 4 5 6 7 8 9 10 11 12 13 14 15 16 17 18 19 20 21 22 23 24 25 26 27 28 29 30 31 32 33 34 35 36 37 38 39 40 41 42 43 44 45 46 47 48 49 50
000
ASUS43 KLSX 151659
RWRMO

WEATHER SUMMARY FOR MISSOURI
NATIONAL WEATHER SERVICE SPRINGFIELD MO
1200 PM CDT TUE APR 15 2014

NOTE: "FAIR" INDICATES FEW OR NO CLOUDS BELOW 12,000 FEET WITH NO
       SIGNIFICANT WEATHER AND/OR OBSTRUCTIONS TO VISIBILITY.
       CURRENT SKY AND/OR WEATHER CONDITIONS ARE NOT AVAILABLE FOR
       CHILLICOTHE AND FARMINGTON.

MOZ001>031-035>038-043-044-053-054-151800-
...NORTHERN AND WESTERN MISSOURI...

CITY           SKY/WX    TMP DP  RH WIND       PRES   REMARKS
KANSAS CTY INT SUNNY     45  22  40 CALM      30.20F
KANSAS C DTWN  SUNNY     46  22  38 NW6       30.21F
LEE`S SUMMIT   MOSUNNY   46  22  38 W6        30.21F
ST JOSEPH      SUNNY     45  20  36 W8        30.22S
CHILLICOTHE      N/A     44  17  33 W9        30.23S
KIRKSVILLE     SUNNY     41  15  35 NW13      30.21S

$$
MOZ066>068-077>081-088>096-101>105-151800-
...SOUTHWEST MISSOURI...

CITY           SKY/WX    TMP DP  RH WIND       PRES   REMARKS
SPRINGFIELD    SUNNY     44  23  43 W5        30.23S
JOPLIN         SUNNY     49  22  34 VRB5      30.24F

$$
MOZ032>034-039>042-045>050-055>058-069>072-151800-
...CENTRAL MISSOURI...

CITY           SKY/WX    TMP DP  RH WIND       PRES   REMARKS
COLUMBIA       SUNNY     43  18  36 W7        30.23F
JEFFERSON CITY SUNNY     41  17  38 N7        30.25F
ROLLA          MOSUNNY   41  20  43 NW10G21   30.22S
SEDALIA        MOSUNNY   45  25  45 MISG      30.24S
WHITEMAN AFB   MOSUNNY   43  19  37 W10       30.22
OSAGE BEACH    MOSUNNY   43  19  39 NW3       30.25F

$$
MOZ051-052-059>065-151800-
...EAST CENTRAL MISSOURI...

CITY           SKY/WX    TMP DP  RH WIND       PRES   REMARKS
ST LOUIS INTL  MOSUNNY   44  17  33 NW17G25   30.23R
SPIRIT OF STL  MOSUNNY   42  18  37 W13       30.23S
ST CHARLES     PTSUNNY   42  21  43 NW17G24   30.22S

$$
MOZ072>076-082>087-097>100-106>115-151800-
...SOUTH CENTRAL AND SOUTHEAST MISSOURI...

CITY           SKY/WX    TMP DP  RH WIND       PRES   REMARKS
CAPE GIRARDEAU SUNNY     44  21  40 N15G26    30.23S
FARMINGTON     SUNNY     43  16  33 N12G18    30.24R
POPLAR BLUFF   SUNNY     46  19  34 MISG      30.23R
WEST PLAINS    SUNNY     45  21  38 NW9G18    30.23F

$$



USA.gov is the U.S. government's official web portal to all federal, state and local government web resources and services.